Location: Bogis-Bossey
(46.3500°N, 6.1667°E)
Time: 16:46:42
(UTC+00:00)

Cosmos 2151 - Pass Details

Date: 17 August 2022
Orbit: 580 x 598 km, 82.5° (Epoch: 01 October)

Event Time Altitude Azimuth Distance (km) Brightness Sun altitude
Rises 19:10:00 0° 197° (SSW) 2,809 6.3 -5.3°
Reaches altitude 10° 19:12:13 10° 201° (SSW) 1,910 5.5 -5.7°
Maximum altitude 19:16:23 59° 281° (W) 681 3.7 -6.3°
Drops below altitude 10° 19:20:34 10° 2° (N) 1,915 5.9 -7.0°
Sets 19:22:48 0° 6° (N) 2,818 6.7 -7.3°
